Location: Brachbach
(49.1847°N, 9.7240°E)
Time: 02:33:04
(UTC+00:00)

ARIANE 6 FM1 Upper Stage - Pass Details

Date: 31 January 2026
Orbit: 522 x 609 km, 62.0° (Epoch: 13 February)

Event Time Altitude Azimuth Distance (km) Brightness Sun altitude
Rises 17:33:49 0° 262° (W) 2,694 8.2 -12.8°
Reaches altitude 10° 17:36:21 10° 276° (W) 1,792 6.5 -13.2°
Maximum altitude 17:39:41 25° 332° (NNW) 1,114 4.4 -13.8°
Enters shadow 17:42:48 11° 27° (NNE) 1,713 4.8 -14.3°
